Find Starlink 38293

NORAD ID: 100387 Int'l Des: 2026-190 Owner: SPXS Country: US Constellation: starlink operational

当前视图

正在加载3D地球...

About Starlink 38293

Starlink 38293 (NORAD 100387) is a starlink constellation satellite launched Aug 19, 2026 by SPXS of US. with a mass of 575.00 kg.

即将过境

Passes for default location (London). Set your location on the main map for personalized predictions.

高度历史

Loading altitude history...

两行轨道根数

1 A0387U 26190S 26248.19952070 .00091752 00000-0 60906-3 0 9999
2 A0387 97.2841 101.7503 0001894 80.7297 279.4183 15.75202834 3962
Epoch: Sep 5, 2026 • Age: 10 hours

当前状态

高度 365.7 km
远地点 / 近地点 N/A
速度 7.69 km/s
星下点 -53.79°S, 101°W
发射日期 Aug 19, 2026
运行时间 17 days
类型 internet

技术详情

分类 Payload
质量 575.00 kg
干质量 530.00 kg
总质量 575.00 kg
长度 0.30 m
直径 4.10 m
跨度 29.00 m
形状 Box + pan
制造商 SPXS
平台类型 Starlink V2MO
阶段状态 In Orbit
所有者/国家 SPXS/US

Most Searched